Location: Ciserano
(45.5833°N, 9.6000°E)
Time: 20:42:04
(UTC+00:00)

FALCON 9 DEB - Visible Passes

Search period start: 13 April 2021 00:00
Search period end: 23 April 2021 00:00
Orbit: 371 x 387 km, 53.0° (Epoch: 13 April)

Date Brightness Start Highest point End Pass type
(mag) Time Alt. Az. Time Alt. Az. Time Alt. Az.
13 Apr 5.2 02:34:40 16° NNW 02:35:54 20° N 02:38:18 10° NE visible
14 Apr 5.8 01:36:42 17° NNE 01:36:42 17° NNE 01:37:58 10° NE visible
14 Apr 5.0 03:09:23 10° NW 03:12:01 25° NNE 03:14:41 10° ENE visible
15 Apr 5.2 02:10:54 19° NNW 02:11:39 21° N 02:14:06 10° ENE visible
15 Apr 3.8 03:44:56 10° NW 03:47:58 49° NNE 03:50:59 10° ESE visible
16 Apr 6.2 01:13:02 13° NE 01:13:02 13° NE 01:13:36 10° NE visible
16 Apr 4.7 02:45:10 12° NW 02:47:41 30° NNE 02:50:29 10° E visible
17 Apr 5.2 01:47:24 23° NNE 01:47:24 23° NNE 01:49:50 10° ENE visible
17 Apr 3.0 03:20:23 10° NW 03:23:29 73° NNE 03:26:35 10° ESE visible
18 Apr 4.2 02:21:58 26° NNW 02:23:13 39° NNE 02:26:09 10° E visible
18 Apr 3.6 03:56:09 10° WNW 03:58:59 32° SW 04:01:47 10° SSE visible
19 Apr 5.8 01:24:38 16° ENE 01:24:38 16° ENE 01:25:31 10° ENE visible
19 Apr 2.7 02:56:50 19° WNW 02:58:52 73° SW 03:01:57 10° SE visible
20 Apr 4.6 02:00:00 28° E 02:00:00 28° E 02:01:40 10° ESE visible
20 Apr 4.2 03:32:14 12° W 03:34:12 20° SW 03:36:35 10° S visible
21 Apr 4.8 02:36:04 19° SSE 02:36:04 19° SSE 02:37:06 10° SE visible
21 Apr 4.3 19:07:16 10° S 19:09:29 18° SE 19:10:59 14° E visible
21 Apr 4.9 20:41:58 10° WSW 20:43:16 22° WSW 20:43:16 22° WSW visible
22 Apr 2.7 19:41:41 10° SW 19:44:43 65° SE 19:47:02 16° ENE visible
22 Apr 5.6 21:18:01 10° WNW 21:19:16 19° WNW 21:19:16 19° WNW visible
